Location: Cortada de Papelón
(10.0378°N, 66.9528°W)
Time: 16:38:05
(UTC+00:00)

Cosmos 1500 Rocket - Pass Details

Date: 13 June 2024
Orbit: 600 x 626 km, 82.5° (Epoch: 20 July)

Event Time Altitude Azimuth Distance (km) Brightness Sun altitude
Rises 23:35:23 0° 4° (N) 2,855 7.3 -11.1°
Reaches altitude 10° 23:37:39 10° 10° (N) 1,956 6.3 -11.6°
Maximum altitude 23:41:51 50° 85° (E) 776 3.7 -12.5°
Enters shadow 23:45:54 11° 161° (SSE) 1,902 5.6 -13.4°
